Weather History for Punta Gorda, FL

Change the Weather History Date:

Monday, August 12, 2013

  Actual Average Record
Temperature  
Mean Temperature 84 °F -  
Max Temperature 93 °F 88 °F 96 °F (2005)
Min Temperature 75 °F 72 °F 71 °F (2011)
Cooling Degree Days 19    
Growing Degree Days 34 (Base 50)    
Moisture  
Dew Point 73 °F    
Average Humidity 75    
Maximum Humidity 100    
Minimum Humidity 42    
Precipitation  
Precipitation 0.00 in - - ()
Sea Level Pressure  
Sea Level Pressure 30.10 in    
Wind  
Wind Speed 5 mph (ENE)    
Max Wind Speed 14 mph    
Max Gust Speed 22 mph    
Visibility 8 miles    
Events      
Averages and records for this station are not official NWS values.
T = Trace of Precipitation, MM = Missing Value Source: NWS Daily Summary

Daily Weather History Graph

Daily Weather History Graph

Search for Another Location

Airport:

Trip Planner

Search our weather history database for the weather conditions in past years. The results will help you decide how hot, cold, wet, or windy it might be!

Date:

Astronomy

Aug. 12, 2013 Rise Set
Actual Time 6:58 AM EDT 8:07 PM EDT
Civil Twilight 6:33 AM EDT 8:31 PM EDT
Nautical Twilight 6:04 AM EDT 9:00 PM EDT
Astronomical Twilight 5:34 AM EDT 9:30 PM EDT
Moon 12:09 PM EDT (8/12) 11:39 PM EDT (8/12)
Length of Visible Light 13h 58m
Length of Day
13h 09m
Waxing Crescent, 31% of the Moon is Illuminated
Aug 12
Waxing Crescent
Aug 14
First Quarter
Aug 20
Full
Aug 28
Last Quarter
Sep 5
New

Hourly Weather History & Observations

Time (EDT) Temp. Heat Index Dew Point Humidity Pressure Visibility Wind Dir Wind Speed Gust Speed Precip Events Conditions
12:53 AM 80.1 °F 84.5 °F 73.9 °F 81% 30.15 in 10.0 mi ESE 5.8 mph - N/A   Clear
1:53 AM 79.0 °F - 73.9 °F 84% 30.14 in 10.0 mi Calm Calm - N/A   Clear
2:53 AM 78.1 °F - 75.0 °F 90% 30.12 in 10.0 mi Calm Calm - N/A   Clear
3:53 AM 75.9 °F - 73.9 °F 94% 30.10 in 10.0 mi East 3.5 mph - N/A   Clear
4:53 AM 75.9 °F - 73.9 °F 94% 30.10 in 10.0 mi Calm Calm - N/A   Clear
5:53 AM 75.0 °F - 73.9 °F 96% 30.11 in 10.0 mi North 4.6 mph - N/A   Clear
6:53 AM 75.0 °F - 73.9 °F 96% 30.12 in 9.0 mi Calm Calm - N/A   Clear
7:45 AM 75.2 °F - 75.2 °F 100% 30.13 in 2.5 mi NE 3.5 mph - N/A   Mostly Cloudy
7:53 AM 75.9 °F - 75.0 °F 97% 30.13 in 3.0 mi NE 3.5 mph - N/A   Mostly Cloudy
8:02 AM 77.0 °F - 75.2 °F 94% 30.13 in 2.0 mi NE 3.5 mph - N/A   Overcast
8:10 AM 77.0 °F - 75.2 °F 94% 30.13 in 2.0 mi NE 4.6 mph - N/A   Overcast
8:22 AM 77.0 °F - 75.2 °F 94% 30.13 in 2.0 mi NE 4.6 mph - N/A   Overcast
8:33 AM 78.8 °F - 75.2 °F 89% 30.13 in 5.0 mi ENE 4.6 mph - N/A   Mostly Cloudy
8:53 AM 78.1 °F - 75.9 °F 93% 30.13 in 10.0 mi East 3.5 mph - N/A   Scattered Clouds
9:53 AM 84.0 °F 91.9 °F 75.0 °F 74% 30.13 in 10.0 mi East 6.9 mph - N/A   Partly Cloudy
10:53 AM 86.0 °F 93.8 °F 73.9 °F 67% 30.13 in 10.0 mi NE 6.9 mph - N/A   Scattered Clouds
11:53 AM 89.1 °F 96.0 °F 72.0 °F 57% 30.12 in 10.0 mi ENE 6.9 mph - N/A   Clear
12:53 PM 91.0 °F 95.6 °F 69.1 °F 48% 30.11 in 10.0 mi Variable 6.9 mph - N/A   Clear
1:53 PM 91.9 °F 97.4 °F 70.0 °F 48% 30.09 in 10.0 mi NE 10.4 mph 17.3 mph N/A   Partly Cloudy
2:53 PM 93.0 °F 96.4 °F 66.9 °F 42% 30.06 in 10.0 mi East 12.7 mph - N/A   Clear
3:53 PM 91.9 °F 95.9 °F 68.0 °F 45% 30.06 in 10.0 mi ENE 5.8 mph 17.3 mph N/A   Clear
4:53 PM 91.9 °F 96.9 °F 69.1 °F 47% 30.05 in 10.0 mi NE 11.5 mph 21.9 mph N/A   Clear
5:53 PM 91.9 °F 96.9 °F 69.1 °F 47% 30.04 in 10.0 mi ENE 13.8 mph - N/A   Clear
6:53 PM 91.0 °F 96.6 °F 70.0 °F 50% 30.03 in 10.0 mi ENE 9.2 mph - N/A   Clear
7:53 PM 87.1 °F 94.5 °F 73.0 °F 63% 30.03 in 10.0 mi East 3.5 mph - N/A   Clear
8:53 PM 84.9 °F 90.1 °F 71.1 °F 63% 30.04 in 10.0 mi ESE 10.4 mph - N/A   Clear
9:53 PM 82.9 °F 88.8 °F 73.0 °F 72% 30.06 in 10.0 mi ESE 5.8 mph - N/A   Clear
10:53 PM 82.0 °F 87.9 °F 73.9 °F 76% 30.09 in 10.0 mi ESE 5.8 mph - N/A   Clear
11:53 PM 81.0 °F 86.2 °F 73.9 °F 79% 30.09 in 10.0 mi ESE 6.9 mph - N/A   Clear